Location: Cutler
(25.6150°N, 80.3110°W)
Time: 23:39:50
(UTC-05:00)

UWE-3 - Visible Passes

Search period start: 11 December 2017 00:00
Search period end: 21 December 2017 00:00
Orbit: 585 x 685 km, 97.6° (Epoch: 11 December)

Date Brightness Start Highest point End Pass type
(mag) Time Alt. Az. Time Alt. Az. Time Alt. Az.
14 Dec ? 19:58:03 10° SSW 19:58:05 10° SSW 19:58:05 10° SSW visible
17 Dec ? 19:27:14 10° SSE 19:27:37 12° SSE 19:27:37 12° SSE visible
18 Dec ? 19:49:21 10° S 19:49:57 14° S 19:49:57 14° S visible
19 Dec ? 20:11:59 10° SSW 20:12:18 11° SSW 20:12:18 11° SSW visible
